TimeEST,TemperatureF,Dew PointF,Humidity,Sea Level PressureIn,VisibilityMPH,Wind Direction,Wind SpeedMPH,Gust SpeedMPH,PrecipitationIn,Events,Conditions,WindDirDegrees,DateUTC
12:15 AM,30.2,26.6,86,30.20,10.0,South,10.4,17.3,N/A,,Scattered Clouds,180,2012-12-06 05:15:00
12:35 AM,30.2,26.6,86,30.20,10.0,South,11.5,-,N/A,,Mostly Cloudy,180,2012-12-06 05:35:00
12:54 AM,30.2,26.6,86,30.20,10.0,South,10.4,18.4,N/A,,Mostly Cloudy,180,2012-12-06 05:54:00
1:15 AM,32.0,26.6,80,30.19,10.0,South,12.7,19.6,N/A,,Scattered Clouds,180,2012-12-06 06:15:00
1:34 AM,32.0,26.6,80,30.19,10.0,South,12.7,17.3,N/A,,Scattered Clouds,170,2012-12-06 06:34:00
1:55 AM,32.0,26.6,80,30.18,10.0,South,11.5,17.3,N/A,,Scattered Clouds,170,2012-12-06 06:55:00
2:15 AM,32.0,28.4,87,30.18,10.0,South,12.7,17.3,N/A,,Overcast,180,2012-12-06 07:15:00
2:34 AM,33.8,28.4,81,30.17,10.0,South,11.5,16.1,N/A,,Mostly Cloudy,180,2012-12-06 07:34:00
2:55 AM,33.8,28.4,81,30.15,10.0,South,13.8,20.7,N/A,,Overcast,180,2012-12-06 07:55:00
3:15 AM,33.8,28.4,81,30.15,10.0,South,12.7,20.7,N/A,,Overcast,180,2012-12-06 08:15:00
3:35 AM,33.8,28.4,81,30.15,10.0,South,18.4,23.0,N/A,,Overcast,190,2012-12-06 08:35:00
3:55 AM,33.8,28.4,81,30.13,10.0,South,16.1,21.9,N/A,,Overcast,180,2012-12-06 08:55:00
4:14 AM,33.8,28.4,81,30.12,10.0,South,16.1,20.7,N/A,,Overcast,180,2012-12-06 09:14:00
4:35 AM,33.8,28.4,81,30.12,10.0,South,12.7,24.2,N/A,,Overcast,180,2012-12-06 09:35:00
4:55 AM,33.8,30.2,87,30.12,10.0,South,15.0,20.7,N/A,,Overcast,180,2012-12-06 09:55:00
5:14 AM,33.8,30.2,87,30.11,10.0,SSE,13.8,-,N/A,,Mostly Cloudy,160,2012-12-06 10:14:00
5:35 AM,33.8,30.2,87,30.11,10.0,South,13.8,-,N/A,,Overcast,170,2012-12-06 10:35:00
5:54 AM,33.8,30.2,87,30.10,10.0,South,13.8,-,N/A,,Overcast,170,2012-12-06 10:54:00
6:15 AM,33.8,28.4,81,30.08,10.0,SSE,16.1,-,N/A,,Overcast,160,2012-12-06 11:15:00
6:35 AM,33.8,28.4,81,30.08,10.0,South,13.8,19.6,N/A,,Overcast,170,2012-12-06 11:35:00
6:54 AM,33.8,28.4,81,30.07,10.0,South,13.8,19.6,N/A,,Overcast,170,2012-12-06 11:54:00
7:15 AM,33.8,28.4,81,30.06,10.0,South,17.3,21.9,N/A,,Overcast,170,2012-12-06 12:15:00
7:35 AM,33.8,28.4,81,30.04,10.0,SSE,16.1,21.9,N/A,,Overcast,160,2012-12-06 12:35:00
7:54 AM,33.8,28.4,81,30.03,10.0,South,17.3,27.6,N/A,,Overcast,170,2012-12-06 12:54:00
8:15 AM,33.8,30.2,87,30.03,10.0,South,15.0,25.3,N/A,,Overcast,170,2012-12-06 13:15:00
8:35 AM,33.8,30.2,87,30.02,10.0,South,15.0,26.5,N/A,,Overcast,170,2012-12-06 13:35:00
8:54 AM,33.8,28.4,81,30.01,10.0,SSE,17.3,25.3,N/A,,Overcast,160,2012-12-06 13:54:00
9:15 AM,33.8,30.2,87,30.01,7.0,South,18.4,24.2,N/A,Snow,Light Snow,180,2012-12-06 14:15:00
9:34 AM,33.8,30.2,87,30.00,10.0,South,13.8,20.7,N/A,,Mostly Cloudy,180,2012-12-06 14:34:00
9:55 AM,33.8,30.2,87,29.98,10.0,South,16.1,27.6,N/A,,Mostly Cloudy,170,2012-12-06 14:55:00
10:15 AM,33.8,30.2,87,29.98,3.0,South,17.3,24.2,N/A,Snow,Light Snow,170,2012-12-06 15:15:00
10:34 AM,33.8,30.2,87,29.97,2.5,SSE,17.3,23.0,N/A,Snow,Light Snow,160,2012-12-06 15:34:00
10:55 AM,33.8,30.2,87,29.97,5.0,South,18.4,23.0,N/A,Snow,Light Snow,180,2012-12-06 15:55:00
11:15 AM,33.8,30.2,87,29.96,2.0,South,13.8,23.0,N/A,Snow,Light Snow,170,2012-12-06 16:15:00
11:34 AM,33.8,30.2,87,29.94,1.5,SSE,13.8,-,N/A,Snow,Light Snow,160,2012-12-06 16:34:00
11:55 AM,33.8,32.0,93,29.92,2.0,SSE,15.0,24.2,N/A,Snow,Light Snow,160,2012-12-06 16:55:00
12:15 PM,33.8,32.0,93,29.91,7.0,South,12.7,-,N/A,Snow,Light Snow,170,2012-12-06 17:15:00
12:34 PM,33.8,30.2,87,29.90,4.0,South,16.1,21.9,N/A,Snow,Light Snow,170,2012-12-06 17:34:00
12:55 PM,33.8,30.2,87,29.88,1.5,SSE,15.0,25.3,N/A,Snow,Light Snow,160,2012-12-06 17:55:00
1:15 PM,33.8,30.2,87,29.87,2.5,South,16.1,25.3,N/A,Snow,Light Snow,170,2012-12-06 18:15:00
1:35 PM,33.8,32.0,93,29.86,5.0,South,11.5,20.7,N/A,Snow,Light Snow,170,2012-12-06 18:35:00
1:55 PM,33.8,32.0,93,29.87,1.5,South,10.4,-,N/A,Snow,Light Snow,190,2012-12-06 18:55:00
2:14 PM,33.8,32.0,93,29.85,5.0,South,9.2,-,N/A,Snow,Light Snow,170,2012-12-06 19:14:00
2:35 PM,33.8,33.8,100,29.83,3.0,South,12.7,18.4,N/A,Snow,Light Snow,170,2012-12-06 19:35:00
2:55 PM,35.6,33.8,93,29.83,10.0,South,15.0,19.6,N/A,Snow,Light Snow,170,2012-12-06 19:55:00
3:14 PM,35.6,33.8,93,29.82,10.0,South,17.3,20.7,N/A,,Overcast,190,2012-12-06 20:14:00
3:35 PM,35.6,33.8,93,29.82,10.0,South,11.5,18.4,N/A,,Overcast,180,2012-12-06 20:35:00
3:55 PM,35.6,33.8,93,29.82,5.0,South,12.7,-,N/A,,Overcast,180,2012-12-06 20:55:00
4:14 PM,35.6,33.8,93,29.82,7.0,South,13.8,-,N/A,Snow,Light Snow,180,2012-12-06 21:14:00
4:35 PM,35.6,33.8,93,29.82,10.0,South,12.7,-,N/A,,Overcast,180,2012-12-06 21:35:00
4:55 PM,35.6,35.6,100,29.81,5.0,South,13.8,19.6,N/A,,Overcast,180,2012-12-06 21:55:00
5:15 PM,35.6,35.6,100,29.79,4.0,South,16.1,23.0,N/A,,Overcast,180,2012-12-06 22:15:00
5:35 PM,37.4,35.6,93,29.79,5.0,South,13.8,21.9,N/A,,Overcast,190,2012-12-06 22:35:00
5:54 PM,37.4,35.6,93,29.78,7.0,South,20.7,25.3,N/A,,Overcast,180,2012-12-06 22:54:00
6:15 PM,37.4,35.6,93,29.78,7.0,South,16.1,25.3,N/A,,Overcast,190,2012-12-06 23:15:00
6:34 PM,37.4,35.6,93,29.78,5.0,South,16.1,20.7,N/A,Rain,Light Rain,190,2012-12-06 23:34:00
6:55 PM,37.4,35.6,93,29.79,4.0,South,12.7,19.6,N/A,Rain,Light Rain,190,2012-12-06 23:55:00
7:15 PM,37.4,35.6,93,29.79,3.0,South,10.4,-,N/A,Rain,Rain,190,2012-12-07 00:15:00
7:34 PM,37.4,35.6,93,29.79,4.0,SSW,6.9,-,N/A,Rain,Light Rain,210,2012-12-07 00:34:00
7:55 PM,37.4,37.4,100,29.80,5.0,SSW,17.3,-,N/A,Rain,Light Rain,210,2012-12-07 00:55:00
8:15 PM,37.4,35.6,93,29.79,7.0,SW,12.7,19.6,N/A,,Overcast,220,2012-12-07 01:15:00
8:34 PM,37.4,35.6,93,29.80,7.0,SW,9.2,-,N/A,,Overcast,230,2012-12-07 01:34:00
8:55 PM,37.4,35.6,93,29.79,7.0,SW,8.1,-,N/A,,Overcast,220,2012-12-07 01:55:00
9:14 PM,37.4,35.6,93,29.79,7.0,SSW,6.9,-,N/A,,Overcast,210,2012-12-07 02:14:00
9:35 PM,37.4,35.6,93,29.79,5.0,SSW,5.8,-,N/A,,Overcast,210,2012-12-07 02:35:00
9:54 PM,37.4,35.6,93,29.78,5.0,SW,5.8,-,N/A,,Overcast,220,2012-12-07 02:54:00
10:15 PM,37.4,35.6,93,29.79,7.0,SW,5.8,-,N/A,,Overcast,230,2012-12-07 03:15:00
10:35 PM,37.4,35.6,93,29.79,7.0,SW,8.1,-,N/A,,Overcast,230,2012-12-07 03:35:00
10:54 PM,37.4,35.6,93,29.79,7.0,WSW,9.2,-,N/A,,Overcast,240,2012-12-07 03:54:00
11:15 PM,37.4,35.6,93,29.80,5.0,WSW,9.2,-,N/A,,Overcast,240,2012-12-07 04:15:00
11:34 PM,37.4,35.6,93,29.80,5.0,West,10.4,-,N/A,,Overcast,260,2012-12-07 04:34:00
11:55 PM,37.4,35.6,93,29.81,5.0,WSW,6.9,-,N/A,,Overcast,250,2012-12-07 04:55:00